Regional Weather Roundup
Issued by NWS

Home | Current Version | Previous Version | Graphics & Text | Print | Product List | Glossary On
Versions: 1 2 3 4 5 6 7 8 9 10 11 12 13 14 15 16 17 18 19 20 21 22 23 24 25 26 27 28 29 30 31 32 33 34 35 36 37 38 39 40 41 42 43 44 45 46 47 48 49 50
473
ASUS45 KBOI 240510
RWRID

IDAHO REGIONAL WEATHER ROUNDUP
NATIONAL WEATHER SERVICE BOISE ID
1000 PM MST THU FEB 23 2017

NOTE: "FAIR" INDICATES FEW OR NO CLOUDS BELOW 12000 FEET
WITH NO SIGNIFICANT WEATHER AND/OR OBSTRUCTIONS TO VISIBILITY

IDZ012-014-240600-
SOUTHWEST IDAHO


CITY           SKY/WX    TMP DP  RH WIND       PRES   REMARKS
BOISE          CLOUDY    30  23  75 NW22      29.97R WCI  17
CALDWELL       CLOUDY    32  22  66 W13       30.01S WCI  22
MOUNTAIN HOME  MOCLDY    31  24  77 NW25      29.94S WCI  17
$$

IDZ016-017-240600-
SOUTHCENTRAL IDAHO


CITY           SKY/WX    TMP DP  RH WIND       PRES   REMARKS
BURLEY         MIX PCPN  27  19  72 W18G25    29.87S WCI  14
JEROME           N/A    N/A N/A N/A MISG      29.87S
TWIN FALLS     CLOUDY    24  18  77 SW21      29.89R WCI   9
$$

IDZ019>023-240600-
SOUTHEAST IDAHO


CITY           SKY/WX    TMP DP  RH WIND       PRES   REMARKS
IDAHO FALLS    CLOUDY    23  22  96 S21G29    29.80S WCI   8
POCATELLO      LGT SNOW  24  21  88 SW20G28   29.85R FOG     WCI  10
REXBURG        CLOUDY    23  21  92 S14       29.80S FOG     WCI  11
$$

IDZ006-010-011-018-031-032-240600-
CENTRAL IDAHO MOUNTAINS


CITY           SKY/WX    TMP DP  RH WIND       PRES   REMARKS
MCCALL         CLOUDY    22  11  62 N9        29.87S WCI  12
STANLEY          N/A     19  14  81 NW6       29.76R WCI  11
SALMON         CLOUDY    28  21  74 E7        29.84S WCI  21
CHALLIS        CLOUDY    25  22  88 NW3       29.80S
$$

IDZ002-004-006-007-026-240600-
NORTHERN IDAHO


CITY           SKY/WX    TMP DP  RH WIND       PRES   REMARKS
LEWISTON       PTCLDY    32  24  72 SE3       30.11R
LOWELL           N/A     32  29  88 CALM      30.11S
COEUR D`ALENE  CLEAR     24  22  91 S7        30.06R WCI  16
MULLAN PASS    CLOUDY    15  14  95 VRB3      29.86R FOG
$$




USA.gov is the U.S. government's official web portal to all federal, state and local government web resources and services.